| time (UTC) | temp C | wind direction | speed KPH | gust KPH | rain 1hr cm | rain 24hr cm | rain mn cm | humidity % | barometer mb |
| 20260505124525 | 21 | 209 | 8.0 | 24.1 | 0.00 | 0.00 | 0.00 | 85 | 1005.6 |
| 20260505123023 | 21 | 186 | 4.8 | 25.7 | 0.00 | 0.00 | 0.00 | 85 | 1005.5 |
| 20260505121516 | 21 | 202 | 6.4 | 22.5 | 0.00 | 0.00 | 0.00 | 85 | 1005.5 |
| 20260505120024 | 21 | 136 | 6.4 | 22.5 | 0.00 | 0.00 | 0.00 | 85 | 1005.4 |
| 20260505114523 | 21 | 172 | 3.2 | 22.5 | 0.00 | 0.00 | 0.00 | 85 | 1005.3 |
| 20260505113024 | 21 | 205 | 6.4 | 25.7 | 0.00 | 0.00 | 0.00 | 84 | 1005.2 |
| 20260505111519 | 21 | 142 | 6.4 | 22.5 | 0.00 | 0.00 | 0.00 | 84 | 1005.2 |
| 20260505101546 | 21 | 220 | 11.3 | 24.1 | 0.00 | 0.00 | 0.00 | 82 | 1005.4 |
| 20260505100035 | 21 | 209 | 9.7 | 17.7 | 0.00 | 0.00 | 0.00 | 82 | 1005.3 |
| 20260505094527 | 21 | 211 | 9.7 | 24.1 | 0.00 | 0.00 | 0.00 | 82 | 1005.4 |
| 20260505093025 | 21 | 155 | 3.2 | 20.9 | 0.00 | 0.00 | 0.00 | 82 | 1005.3 |
| 20260505091528 | 21 | 98 | 6.4 | 27.4 | 0.00 | 0.00 | 0.00 | 82 | 1005.3 |
| 20260505090012 | 21 | 211 | 6.4 | 25.7 | 0.00 | 0.00 | 0.00 | 82 | 1005.2 |
| 20260505084519 | 21 | 173 | 9.7 | 29.0 | 0.00 | 0.00 | 0.00 | 82 | 1005.2 |
| 20260505083004 | 21 | 242 | 8.0 | 27.4 | 0.00 | 0.00 | 0.00 | 82 | 1005.4 |
| 20260505081510 | 21 | 197 | 6.4 | 22.5 | 0.00 | 0.00 | 0.00 | 81 | 1005.6 |
| 20260505080013 | 21 | 157 | 8.0 | 20.9 | 0.00 | 0.00 | 0.00 | 81 | 1005.8 |
| 20260505074517 | 21 | 96 | 9.7 | 24.1 | 0.00 | 0.00 | 0.00 | 81 | 1005.7 |
| 20260505073012 | 21 | 198 | 9.7 | 37.0 | 0.00 | 0.00 | 0.00 | 80 | 1005.8 |
| 20260505071504 | 21 | 204 | 6.4 | 29.0 | 0.00 | 0.00 | 0.00 | 80 | 1005.9 |
| 20260505070014 | 21 | 186 | 6.4 | 22.5 | 0.00 | 0.00 | 0.00 | 79 | 1006.1 |
| 20260505064518 | 21 | 217 | 9.7 | 22.5 | 0.00 | 0.00 | 0.00 | 78 | 1006.4 |
| 20260505063018 | 21 | 186 | 9.7 | 19.3 | 0.00 | 0.00 | 0.00 | 77 | 1006.6 |
| 20260505061512 | 21 | 220 | 8.0 | 24.1 | 0.00 | 0.00 | 0.00 | 77 | 1006.6 |
| 20260505060008 | 22 | 200 | 11.3 | 20.9 | 0.00 | 0.00 | 0.00 | 76 | 1006.5 |
| 20260505054511 | 22 | 205 | 12.9 | 25.7 | 0.00 | 0.00 | 0.00 | 75 | 1006.7 |
| 20260505053030 | 22 | 169 | 9.7 | 25.7 | 0.00 | 0.00 | 0.00 | 75 | 1006.8 |
| 20260505051537 | 22 | 173 | 8.0 | 25.7 | 0.00 | 0.00 | 0.00 | 75 | 1006.9 |
| 20260505041523 | 21 | 159 | 4.8 | 16.1 | 0.00 | 0.00 | 0.00 | 74 | 1007.3 |
| 20260505040025 | 21 | 216 | 4.8 | 11.3 | 0.00 | 0.00 | 0.00 | 73 | 1007.3 |
| 20260505034509 | 21 | 190 | 4.8 | 14.5 | 0.00 | 0.00 | 0.00 | 73 | 1007.4 |
| 20260505033016 | 22 | 148 | 3.2 | 12.9 | 0.00 | 0.00 | 0.00 | 72 | 1007.5 |
| 20260505031521 | 22 | 119 | 4.8 | 16.1 | 0.00 | 0.00 | 0.00 | 71 | 1007.5 |
| 20260505030025 | 22 | 175 | 4.8 | 14.5 | 0.00 | 0.00 | 0.00 | 71 | 1007.5 |
| 20260505024503 | 22 | 147 | 6.4 | 12.9 | 0.00 | 0.00 | 0.00 | 70 | 1007.4 |
| 20260505023014 | 22 | 117 | 3.2 | 14.5 | 0.00 | 0.00 | 0.00 | 70 | 1007.2 |
| 20260505021516 | 22 | 178 | 3.2 | 11.3 | 0.00 | 0.00 | 0.00 | 68 | 1007.3 |
| 20260505020028 | 22 | 146 | 6.4 | 14.5 | 0.00 | 0.00 | 0.00 | 67 | 1007.4 |
| 20260505014526 | 22 | 184 | 3.2 | 11.3 | 0.00 | 0.00 | 0.00 | 67 | 1007.3 |
| 20260505013009 | 23 | 160 | 1.6 | 14.5 | 0.00 | 0.00 | 0.00 | 67 | 1007.2 |
| 20260505011520 | 23 | 140 | 1.6 | 11.3 | 0.00 | 0.00 | 0.00 | 65 | 1007.0 |
| 20260505010030 | 23 | 215 | 4.8 | 19.3 | 0.00 | 0.00 | 0.00 | 64 | 1007.2 |
| 20260505004524 | 23 | 171 | 6.4 | 22.5 | 0.00 | 0.00 | 0.00 | 63 | 1007.1 |
| 20260505003025 | 24 | 137 | 4.8 | 17.7 | 0.00 | 0.00 | 0.00 | 63 | 1007.2 |
| 20260505001512 | 24 | 164 | 4.8 | 11.3 | 0.00 | 0.00 | 0.00 | 60 | 1007.1 |
| 20260505000033 | 24 | 149 | 6.4 | 16.1 | 0.00 | 0.00 | 0.00 | 59 | 1007.2 |
| 20260504234524 | 25 | 157 | 6.4 | 30.6 | 0.00 | 0.00 | 0.00 | 57 | 1007.3 |
| 20260504233025 | 25 | 178 | 8.0 | 17.7 | 0.00 | 0.00 | 0.00 | 56 | 1007.5 |
| 20260504231511 | 25 | 232 | 4.8 | 27.4 | 0.00 | 0.00 | 0.00 | 55 | 1007.8 |
| 20260504230020 | 25 | 139 | 6.4 | 19.3 | 0.00 | 0.00 | 0.00 | 55 | 1007.9 |
| 20260504224523 | 26 | 165 | 9.7 | 24.1 | 0.00 | 0.00 | 0.00 | 54 | 1008.0 |
| 20260504223024 | 26 | 166 | 9.7 | 27.4 | 0.00 | 0.00 | 0.00 | 54 | 1008.1 |
| 20260504221539 | 26 | 196 | 9.7 | 24.1 | 0.00 | 0.00 | 0.00 | 53 | 1008.1 |
| 20260504220014 | 26 | 132 | 11.3 | 27.4 | 0.00 | 0.00 | 0.00 | 52 | 1008.6 |
| 20260504214517 | 26 | 176 | 6.4 | 25.7 | 0.00 | 0.00 | 0.00 | 53 | 1008.6 |
| 20260504213022 | 26 | 199 | 8.0 | 17.7 | 0.00 | 0.00 | 0.00 | 52 | 1008.9 |
| 20260504211537 | 26 | 246 | 9.7 | 22.5 | 0.00 | 0.00 | 0.00 | 52 | 1009.0 |
| 20260504210029 | 26 | 207 | 11.3 | 20.9 | 0.00 | 0.00 | 0.00 | 51 | 1009.4 |
| 20260504204519 | 26 | 219 | 14.5 | 29.0 | 0.00 | 0.00 | 0.00 | 49 | 1009.8 |
| 20260504203022 | 26 | 146 | 8.0 | 24.1 | 0.00 | 0.00 | 0.00 | 48 | 1010.1 |
| 20260504201525 | 26 | 188 | 8.0 | 25.7 | 0.00 | 0.00 | 0.00 | 50 | 1010.4 |
| 20260504200030 | 25 | 155 | 6.4 | 27.4 | 0.00 | 0.00 | 0.00 | 50 | 1010.5 |
| 20260504194537 | 25 | 184 | 14.5 | 24.1 | 0.00 | 0.00 | 0.00 | 48 | 1010.8 |
| 20260504193021 | 25 | 202 | 9.7 | 29.0 | 0.00 | 0.00 | 0.00 | 52 | 1011.0 |
| 20260504191534 | 25 | 182 | 11.3 | 25.7 | 0.00 | 0.00 | 0.00 | 50 | 1011.3 |
| 20260504190026 | 25 | 265 | 6.4 | 25.7 | 0.00 | 0.00 | 0.00 | 53 | 1011.6 |
| 20260504184527 | 25 | 169 | 6.4 | 19.3 | 0.00 | 0.00 | 0.00 | 51 | 1011.9 |
| 20260504183020 | 24 | 140 | 6.4 | 17.7 | 0.00 | 0.00 | 0.00 | 53 | 1012.1 |
| 20260504181524 | 24 | 120 | 9.7 | 27.4 | 0.00 | 0.00 | 0.00 | 52 | 1012.1 |
| 20260504180009 | 23 | 186 | 11.3 | 25.7 | 0.00 | 0.00 | 0.00 | 51 | 1012.5 |
| 20260504174529 | 23 | 169 | 9.7 | 22.5 | 0.00 | 0.00 | 0.00 | 53 | 1012.8 |
| 20260504173019 | 23 | 184 | 11.3 | 24.1 | 0.00 | 0.00 | 0.00 | 52 | 1012.9 |
| 20260504171531 | 23 | 153 | 8.0 | 20.9 | 0.00 | 0.00 | 0.00 | 52 | 1013.0 |